Regional Weather Roundup
Issued by NWS

Home | Current Version | Previous Version | Graphics & Text | Print | Product List | Glossary On
Versions: 1 2 3 4 5 6 7 8 9 10 11 12 13 14 15 16 17 18 19 20 21 22 23 24 25 26 27 28 29 30 31 32 33 34 35 36 37 38 39 40 41 42 43 44 45 46 47 48 49 50
000
ASUS43 KDMX 212006
RWRIA

WEATHER ROUNDUP FOR IOWA
NATIONAL WEATHER SERVICE DES MOINES IA
200 PM CST WED FEB 21 2018

NOTE: "FAIR" INDICATES FEW OR NO CLOUDS BELOW 12,000 FEET WITH NO
SIGNIFICANT WEATHER AND/OR OBSTRUCTIONS TO VISIBILITY.

* - THESE STATIONS ARE NOT NWS STATIONS...THUS NOT UNDER NWS
QUALITY CONTROL.  THEY ALSO DO NOT REPORT WEATHER SUCH
AS PRECIPITATION OR FOG.

IAZ001>003-012>014-020>022-031>034-043>046-212100-
   NORTHWEST IOWA

CITY           SKY/WX    TMP DP  RH WIND       PRES   REMARKS
CARROLL *      FAIR      19   9  63 NE6       30.60F WCI  11
CHEROKEE *     FAIR      21   9  60 SE5       30.60F WCI  15
DENISON *      FAIR      21  10  63 VRB6      30.61F WCI  14
LE MARS *      FAIR      18   5  57 S5        30.61F WCI  11
ORANGE CITY *  FAIR      16  10  79 S6        30.59S WCI   7
SHELDON *      FAIR      16   5  62 S6        30.59S WCI   7
SIOUX CITY     FAIR      19   7  59 E3        30.62F
SPENCER        FLURRIES  18   6  59 VRB3      30.61S
STORM LAKE *   FAIR      18   7  62 S3        30.58F
$$

IAZ055>058-069>071-079>083-090>094-212100-
   SOUTHWEST IOWA

CITY           SKY/WX    TMP DP  RH WIND       PRES   REMARKS
ATLANTIC *     FAIR      23  10  58 NE8G15    30.59F WCI  14
AUDUBON *      FAIR      21  12  68 CALM      30.59F
CLARINDA *     FAIR      25  16  68 NE7G14    30.60F WCI  17
COUNCIL BLFS * FAIR      21  12  68 NE8       30.59F WCI  12
CRESTON *      FAIR      25  18  74 NE13G18   30.57F WCI  13
HARLAN  *      FAIR      21  12  68 NE8       30.62F WCI  12
LAMONI         FAIR      25  18  74 NE14      30.56F WCI  13
RED OAK *      FAIR      25  14  63 NE12      30.60S WCI  14
SHENANDOAH *   FAIR      25  14  63 NE9       30.60F WCI  15
$$

IAZ047>049-059>061-072>074-084-212100-
   CENTRAL IOWA

CITY           SKY/WX    TMP DP  RH WIND       PRES   REMARKS
AMES           FAIR      23  13  65 N9        30.62F WCI  13
ANKENY *       FAIR      23  16  74 NE8       30.63F WCI  14
BOONE *        FAIR      19  14  79 MISG      30.61F
CHARITON *     FAIR      25  19  80 NE12      30.58F WCI  14
DES MOINES     PTSUNNY   25  15  66 N9        30.61F WCI  15
GRINNELL*      FAIR      24  16  72 NE9       30.62F WCI  14
KNOXVILLE *    FAIR      25  16  68 N12       30.58F WCI  14
MARSHALLTOWN   FAIR      22  14  71 N12       30.62F WCI  10
NEWTON *       FAIR      23  16  74 NE9       30.61F WCI  13
PELLA *        FAIR      26  18  72 N6        30.62F WCI  19
PERRY *        FAIR      21  14  75 N8        30.62F WCI  11
$$

IAZ004>006-015-016-023>025-035-036-212100-
   NORTH CENTRAL IOWA

CITY           SKY/WX    TMP DP  RH WIND       PRES   REMARKS
ALGONA *       FAIR      19 N/A N/A W6        30.61F WCI  11
CLARION *      FAIR      19  12  73 NW6       30.62F WCI  11
ESTHERVILLE    FAIR      16   6  65 SW5       30.60S WCI   9
FORT DODGE *   FAIR      24   7  48 W3        30.63F
MASON CITY     FAIR      19   7  59 CALM      30.63S
FOREST CITY *  FAIR      21  12  68 CALM      30.61F
WEBSTER CITY * FAIR      18   5  57 NW5       30.61F WCI  11
IOWA FALLS *   FAIR      21  12  68 NW3       30.63F
$$

IAZ007>011-017>019-026>030-037>042-050>054-066-212100-
   NORTHEAST IOWA

CITY           SKY/WX    TMP DP  RH WIND       PRES   REMARKS
CEDAR RAPIDS   FAIR      27  10  49 N10       30.61S WCI  17
CHARLES CITY * FAIR      19   9  63 CALM      30.62F
CLINTON *      FAIR      28  19  69 N12       30.61F WCI  18
DECORAH *      FAIR      21  10  63 CALM      30.60S
DUBUQUE        FAIR      23  10  57 N9        30.59S WCI  13
MONTICELLO *   FAIR      25  12  58 N9        30.62S WCI  15
OELWEIN *      FAIR      21  12  68 N7G14     30.62F WCI  13
WATERLOO       FAIR      22  11  62 VRB5      30.63F WCI  16
$$

IAZ064-065-067-068-078-212100-
   EAST CENTRAL IOWA

CITY           SKY/WX    TMP DP  RH WIND       PRES   REMARKS
DAVENPORT      FAIR      28  17  63 N7        30.62F WCI  21
IOWA CITY      FAIR      28  11  48 N8        30.64S WCI  20
MT. PLEASANT * FAIR      28  18  64 N12       30.60F WCI  18
MUSCATINE *    FAIR      28  14  54 N7        30.63S WCI  21
QUAD CITIES    FAIR      29  17  61 N12       30.60F WCI  19
$$

IAZ062-063-075>077-085>089-095>099-212100-
   SOUTHEAST IOWA

CITY           SKY/WX    TMP DP  RH WIND       PRES   REMARKS
BURLINGTON     FAIR      28  17  63 N12       30.58F WCI  18
FAIRFIELD *    FAIR      27  14  59 NE12      30.60F WCI  16
FORT MADISON * FAIR      27  19  74 N14       30.58F WCI  15
KEOKUK *       FAIR      28  19  69 N14       30.57F WCI  17
OSKALOOSA *    FAIR      24  19  78 NE8       30.61F WCI  15
OTTUMWA        FAIR      26  17  68 N10       30.60F WCI  16
WASHINGTON *   FAIR      27  18  69 N10       30.62F WCI  17
$$

ABBREVIATIONS USED IN REMARKS
   TC - TEMPERATURES IN CELSIUS
  WCI - WIND CHILL INDEX
   HX - HEAT INDEX
  VSB - VISIBILITY
$$





USA.gov is the U.S. government's official web portal to all federal, state and local government web resources and services.